{"data":{"norad_id":59891,"epoch":"2026-05-25T00:51:38.246112Z","epoch_age_seconds":82698,"freshness":"FRESH","line1":"1 59891U 24100G   26145.03585933  .00001565  00000+0  66366-4 0  9990","line2":"2 59891  42.9988  54.1737 0000342 179.3876 180.6976 15.27577219112738","mean_motion":15.27577219,"eccentricity":3.42e-5,"inclination_deg":42.9988,"raan_deg":54.1737,"arg_perigee_deg":179.3876,"mean_anomaly_deg":180.6976,"bstar":6.6366e-5,"rev_number":11273,"period_min":94.266920329086,"perigee_km":482.82277051747,"apogee_km":483.29207621602,"semimajor_km":6861.1944233667,"source":"CELESTRAK","updated_at":"2026-05-25T13:38:19.117028Z"}}